Date,TemperatureHighF,TemperatureAvgF,TemperatureLowF,DewpointHighF,DewpointAvgF,DewpointLowF,HumidityHigh,HumidityAvg,HumidityLow,PressureMaxIn,PressureMinIn,WindSpeedMaxMPH,WindSpeedAvgMPH,GustSpeedMaxMPH,PrecipitationSumIn
2014-1-1,21.6,21.0,20.2,18.2,17.5,16.7,90,86,84,30.27,30.19,15,12,18,0.00
2014-1-2,19.9,17.6,12.8,17.4,15.3,9.5,92,90,87,30.34,30.16,13,6,17,0.00
2014-1-3,17.2,13.2,-7.5,12.1,8.0,-11.3,83,80,77,30.51,30.23,16,8,19,0.00
2014-1-4,34.2,30.9,23.2,29.5,25.1,17.7,84,79,76,29.97,29.91,15,11,19,0.00
2014-1-5,21.8,18.5,12.3,19.8,16.5,9.9,92,92,90,30.02,29.88,16,12,23,0.00
2014-1-6,-8.3,-10.9,-13.8,-12.3,-15.1,-18.0,82,81,80,30.38,30.29,11,6,18,0.00
2014-1-7,8.0,0.3,-9.3,3.3,-4.5,-13.8,81,79,78,30.45,30.34,7,5,10,0.00
2014-1-8,15.0,9.3,-0.7,10.8,5.4,-3.9,88,84,79,30.50,30.42,3,2,4,0.00
2014-1-9,24.0,19.4,13.1,22.0,16.3,9.2,92,88,84,30.52,30.31,13,9,15,0.00
2014-1-10,37.8,34.7,33.0,36.8,33.6,32.0,97,96,95,30.10,29.72,17,11,21,0.56
2014-1-11,36.3,34.5,33.6,34.0,32.6,32.0,97,93,86,29.65,29.50,7,5,12,0.08
2014-1-12,40.8,34.8,29.9,35.8,31.9,27.9,93,89,82,29.94,29.67,19,12,23,0.00
2014-1-13,46.7,42.6,37.9,40.0,37.7,34.2,89,83,75,29.70,29.59,8,5,10,0.00
2014-1-14,35.3,33.0,29.8,33.5,29.5,24.0,94,87,76,29.83,29.68,12,8,19,0.02
2014-1-15,21.3,19.1,16.7,14.0,13.0,11.9,82,77,72,30.14,30.09,7,5,10,0.00
2014-1-16,36.9,32.6,26.8,32.6,28.7,24.0,92,85,78,29.69,29.55,14,9,19,0.01
2014-1-17,17.1,14.2,12.1,12.3,9.3,7.4,84,80,77,30.00,29.90,6,5,10,0.00
2014-1-18,20.6,18.5,13.8,18.6,15.6,10.4,92,88,82,29.94,29.74,16,11,18,0.00
2014-1-19,35.8,26.7,16.1,31.7,23.3,13.4,90,87,84,29.90,29.66,12,8,16,0.00
2014-1-20,35.3,32.4,28.1,30.4,28.4,25.1,90,85,82,29.93,29.84,5,3,6,0.00
2014-1-21,9.6,7.5,4.1,4.5,2.5,-0.4,82,79,77,30.33,30.27,8,5,12,0.00
2014-1-22,17.9,13.0,6.7,14.6,8.7,1.8,88,82,79,30.12,29.97,10,7,14,0.00
2014-1-23,5.7,2.4,-3.1,-0.2,-3.9,-9.1,79,75,73,30.67,30.51,11,8,14,0.00
2014-1-24,22.6,14.5,0.7,14.6,7.5,-4.0,80,73,67,30.44,29.88,19,14,25,0.00
2014-1-25,28.8,19.9,11.1,23.0,9.5,3.3,81,64,57,29.90,29.55,15,10,19,0.00
2014-1-26,35.7,30.0,17.0,30.2,25.8,13.5,91,84,77,29.74,29.47,15,6,23,0.00
2014-1-27,1.4,-0.3,-2.6,-3.9,-5.9,-10.6,83,77,67,30.44,30.26,10,7,13,0.00
2014-1-28,8.1,1.5,-10.1,0.3,-5.3,-14.6,81,73,68,30.55,30.41,6,4,11,0.00
2014-1-29,26.6,17.6,2.4,14.0,7.3,-2.9,78,64,52,30.32,30.19,8,6,10,0.00
2014-1-30,34.4,27.9,21.5,28.1,19.0,13.2,92,69,58,29.95,29.70,17,13,25,0.00
2014-1-31,22.9,21.0,19.3,19.0,16.3,14.6,88,82,77,30.21,30.13,6,3,7,0.00
2014-2-1,31.9,30.0,27.5,30.6,28.8,26.3,95,95,95,29.95,29.85,10,6,10,0.03
2014-2-2,19.8,17.3,13.8,14.0,12.4,9.0,87,81,78,30.33,30.25,6,4,7,0.02
2014-2-3,12.4,2.6,-12.1,8.0,-1.3,-16.5,88,84,77,30.46,30.40,4,1,4,0.00
2014-2-4,20.9,17.0,5.4,17.0,11.8,2.4,89,80,72,30.48,30.27,15,6,17,0.00
2014-2-5,26.3,24.1,19.5,23.6,21.0,14.0,94,88,77,30.39,30.08,15,9,18,0.00
2014-2-6,4.8,-0.3,-7.5,-2.1,-5.8,-11.8,82,77,71,30.55,30.48,6,3,7,0.00
2014-2-7,10.4,4.1,-4.5,3.8,-1.5,-9.1,82,77,73,30.52,30.43,6,4,9,0.01
2014-2-8,17.2,13.8,10.5,14.8,10.8,7.4,90,88,86,30.35,30.20,10,7,12,0.00
2014-2-9,16.9,12.6,6.4,12.1,8.7,3.6,89,84,80,30.29,30.19,6,3,7,0.00
2014-2-10,8.0,0.9,-14.4,1.1,-4.7,-18.3,85,77,69,30.51,30.46,4,2,5,0.00
2014-2-11,8.1,-2.3,-17.8,3.0,-6.6,-22.3,86,81,72,30.63,30.52,4,1,4,0.00
2014-2-12,17.8,8.6,-6.7,12.8,4.7,-10.3,88,84,79,30.37,30.17,9,4,11,0.00
2014-2-13,29.6,19.6,1.3,22.2,14.3,-1.8,88,80,70,29.93,29.65,10,6,11,0.00
2014-2-14,20.4,16.5,9.0,14.2,11.5,5.9,87,80,75,29.88,29.77,6,4,8,0.00
2014-2-15,16.2,8.8,-5.0,10.8,3.9,-8.6,87,80,75,30.18,30.07,6,3,8,0.00
2014-2-16,24.8,22.1,18.5,18.6,17.2,13.8,89,81,76,30.29,30.12,6,4,8,0.00
2014-2-17,27.7,24.1,21.6,26.5,22.1,19.2,95,92,87,30.14,29.72,24,15,28,0.00
2014-2-18,40.7,33.0,14.2,33.3,28.1,11.9,93,82,74,30.01,29.71,13,9,17,0.06
2014-2-19,38.2,35.3,29.7,32.9,30.9,27.1,90,84,80,30.02,29.90,6,3,8,0.00
2014-2-20,44.6,37.9,35.2,43.8,36.9,33.9,97,96,95,29.68,29.25,20,12,22,1.13
2014-2-21,36.7,32.6,30.3,27.4,24.4,21.0,87,72,61,29.81,29.63,15,10,21,0.00
2014-2-22,35.1,32.6,26.5,28.4,25.5,22.3,87,75,68,30.07,30.00,5,2,6,0.00
2014-2-23,27.6,23.9,20.0,19.3,15.1,12.2,74,69,62,30.27,30.23,6,5,10,0.00
2014-2-24,25.9,22.0,16.2,16.9,13.8,11.1,80,70,63,30.35,30.28,7,5,12,0.00
2014-2-25,22.1,19.4,15.4,16.6,13.7,8.4,87,78,67,30.30,30.20,8,5,9,0.00
2014-2-26,16.7,10.3,2.7,5.4,1.6,-2.9,78,68,55,30.32,29.97,10,6,16,0.00
2014-2-27,12.1,10.5,8.6,1.2,-2.0,-5.0,70,56,49,30.20,30.03,10,6,12,0.00
2014-2-28,32.3,22.0,9.5,20.3,12.5,4.6,80,67,55,30.26,30.03,17,15,19,0.00
2014-3-1,29.5,26.5,21.9,27.2,21.9,14.9,91,83,74,30.26,30.13,10,5,11,0.00
2014-3-2,13.1,11.4,9.9,8.4,6.2,3.6,87,80,73,30.43,30.38,8,5,12,0.00
2014-3-3,16.1,10.9,0.0,6.1,1.5,-8.7,69,65,60,30.57,30.51,4,2,6,0.00
2014-3-4,27.9,21.4,13.3,16.1,12.6,7.4,77,69,58,30.36,30.21,7,4,9,0.00
2014-3-5,23.1,22.2,21.0,20.6,19.2,18.1,91,88,84,30.42,30.39,14,11,16,0.00
2014-3-6,28.7,22.8,13.2,20.5,16.3,10.1,88,76,70,30.38,30.21,12,5,12,0.00
2014-3-7,42.9,35.4,15.0,36.1,29.7,12.6,92,80,74,30.07,29.91,7,4,10,0.00
2014-3-8,32.8,31.5,30.3,29.6,27.7,25.6,94,86,78,30.22,30.13,16,10,19,0.03
2014-3-9,41.0,33.6,24.7,35.5,28.6,23.0,93,82,76,30.28,30.03,10,5,14,0.01
2014-3-10,55.4,47.1,38.1,46.9,39.9,34.1,86,76,69,29.78,29.69,7,5,8,0.00
2014-3-11,50.1,42.6,34.3,43.9,39.0,32.2,95,87,74,29.70,29.62,17,5,18,0.00
2014-3-12,31.9,30.6,29.7,29.4,27.4,24.7,93,88,81,30.00,29.87,17,10,18,0.05
2014-3-13,35.6,27.6,15.8,30.6,23.1,12.6,87,83,79,30.20,30.01,10,7,16,0.00
2014-3-14,54.5,46.5,38.1,43.8,38.4,32.8,82,74,64,29.74,29.65,13,9,18,0.00
2014-3-15,44.0,39.1,32.9,34.6,30.7,29.0,89,72,60,30.12,30.04,10,3,11,0.00
2014-3-16,27.5,25.1,23.0,18.4,15.3,11.9,72,66,60,30.32,30.20,23,19,28,0.00
2014-3-17,36.9,27.2,18.0,28.6,19.2,11.4,76,72,68,30.05,29.85,11,8,12,0.00
2014-3-18,50.0,42.2,31.8,42.2,36.5,28.7,88,80,72,29.91,29.75,20,14,22,0.00
2014-3-19,46.3,42.2,38.0,44.7,40.1,34.8,95,92,88,29.89,29.60,9,6,14,0.55
2014-3-20,47.6,40.7,32.1,36.8,33.6,29.3,91,76,59,30.09,30.01,5,2,7,0.00
2014-3-21,59.3,48.9,35.6,47.9,41.2,32.1,87,75,59,29.96,29.72,15,10,17,0.00
2014-3-22,42.2,39.8,34.4,33.2,31.6,29.4,86,73,62,30.20,30.11,6,5,11,0.00
2014-3-23,33.0,28.3,23.4,19.9,16.9,14.0,69,62,52,30.45,30.38,9,6,13,0.00
2014-3-24,36.1,30.3,23.4,20.1,17.4,15.4,82,60,43,30.39,30.21,5,3,8,0.00
2014-3-25,31.1,28.3,24.2,21.1,18.7,14.2,83,67,53,30.19,30.09,9,7,13,0.00
2014-3-26,39.9,30.3,18.8,24.1,18.1,14.1,82,61,49,30.38,30.17,9,5,13,0.00
2014-3-27,50.2,40.3,35.1,44.6,36.9,31.9,92,88,81,29.88,29.60,19,13,24,0.27
2014-3-28,43.6,41.5,39.4,38.0,36.6,35.5,93,83,78,30.10,29.78,10,5,15,0.00
2014-3-29,41.1,36.7,33.3,34.3,32.7,29.8,91,85,72,30.21,30.17,14,10,15,0.00
2014-3-30,50.3,41.1,30.4,34.3,29.4,26.1,84,64,53,30.29,30.19,6,3,9,0.00
2014-3-31,65.5,55.7,38.9,45.2,40.5,34.2,84,59,39,30.05,29.79,21,14,29,0.00
2014-4-1,51.2,41.9,34.4,35.7,30.1,25.0,72,63,50,29.97,29.84,12,9,19,0.00
2014-4-2,47.6,43.9,36.0,37.5,35.3,32.5,88,72,65,30.16,30.05,12,8,16,0.00
2014-4-3,44.7,43.1,41.9,42.8,41.0,39.6,95,93,90,29.86,29.71,21,13,23,1.40
2014-4-4,46.4,41.2,38.3,45.7,37.8,33.0,98,88,79,29.79,29.51,11,9,18,0.02
2014-4-5,50.8,43.4,32.4,32.9,30.8,28.2,89,63,43,30.23,30.16,5,3,8,0.00
2014-4-6,55.1,49.1,36.7,38.8,36.7,31.1,80,63,50,30.18,29.98,11,7,13,0.00
2014-4-7,53.7,48.6,38.6,39.5,36.4,33.6,88,64,47,29.84,29.62,17,10,21,0.00
2014-4-8,57.7,52.4,40.9,48.2,44.9,39.3,94,76,54,29.77,29.71,9,5,14,0.08
2014-4-9,61.8,52.5,35.9,44.1,37.6,32.1,94,61,33,30.04,29.93,7,5,12,0.00
2014-4-10,62.5,58.9,50.7,49.6,46.0,42.0,73,62,55,29.81,29.70,14,8,18,0.00
2014-4-11,70.0,58.5,38.5,40.7,32.7,26.4,80,42,20,30.05,29.98,5,3,7,0.00
2014-4-12,77.4,69.8,51.2,60.0,53.2,39.8,68,56,45,29.98,29.70,17,12,23,0.00
2014-4-13,69.2,66.3,62.0,61.4,59.7,56.8,91,79,72,29.73,29.52,14,8,17,0.12
2014-4-14,44.3,41.3,37.3,41.8,37.7,34.6,91,87,82,29.85,29.61,13,8,17,0.05
2014-4-15,38.0,34.6,29.3,25.7,22.0,15.2,85,60,48,30.19,30.12,8,5,12,0.01
2014-4-16,52.7,43.9,32.1,34.7,30.8,26.3,79,61,44,30.33,30.17,22,16,28,0.00
2014-4-17,61.3,54.3,40.1,43.3,39.0,32.5,74,57,48,30.21,30.18,10,7,12,0.00
2014-4-18,64.1,56.0,42.3,44.1,41.6,37.0,89,61,37,30.32,30.25,11,4,14,0.00
2014-4-19,69.1,56.7,37.9,43.1,39.5,33.8,85,56,33,30.37,30.23,13,10,16,0.00
2014-4-20,78.9,68.0,46.7,46.4,39.5,-99.9,74,40,29,30.23,30.03,11,-22,14,0.00
2014-4-21,77.3,69.1,55.4,58.0,53.6,47.2,74,58,46,29.94,29.81,13,6,18,0.00
2014-4-22,60.5,53.4,46.9,42.4,40.3,37.3,81,62,43,29.97,29.92,11,7,14,0.00
2014-4-23,57.4,48.3,36.8,35.8,33.7,32.4,85,58,41,30.18,30.08,13,7,15,0.00
2014-4-24,67.7,60.7,48.1,43.9,41.4,38.4,78,51,37,29.99,29.70,24,19,29,0.00
2014-4-25,71.2,61.1,50.6,49.3,45.7,37.5,91,61,30,29.83,29.73,9,7,13,0.12
2014-4-26,58.5,55.5,49.6,41.7,39.6,35.8,74,55,48,29.97,29.91,19,13,23,0.00
2014-4-27,70.1,60.0,46.0,50.9,43.9,37.2,73,57,41,29.96,29.75,27,20,31,0.03
2014-4-28,58.8,53.8,47.2,54.6,50.3,43.5,91,88,84,29.70,29.48,29,18,31,0.34
2014-4-29,63.9,59.8,51.4,56.4,51.3,47.4,97,74,62,29.61,29.44,15,9,22,0.02
2014-4-30,51.8,48.7,46.7,49.3,44.2,39.3,93,85,76,29.81,29.71,8,6,14,0.00
2014-5-1,49.5,47.0,43.8,44.3,42.8,40.8,91,85,78,29.80,29.75,10,8,14,0.06
2014-5-2,52.6,49.9,46.1,46.2,44.9,43.6,91,83,73,29.86,29.79,7,5,10,0.00
2014-5-3,68.4,61.7,49.5,48.6,43.6,37.5,84,54,33,29.83,29.76,9,6,13,0.00
2014-5-4,59.1,57.1,54.7,41.5,37.6,32.4,57,48,40,30.05,29.99,14,7,16,0.00
2014-5-5,65.8,59.1,48.0,42.9,40.2,37.1,69,50,41,29.95,29.85,17,14,22,0.01
2014-5-6,74.6,63.5,47.5,44.2,40.5,37.8,74,45,32,29.98,29.82,19,16,25,0.00
2014-5-7,87.7,77.2,57.8,65.1,59.3,46.4,66,55,44,29.82,29.73,12,9,16,0.00
2014-5-8,91.6,82.7,67.0,65.3,61.6,54.5,81,51,29,29.85,29.71,16,9,22,0.00
2014-5-9,74.7,70.7,65.7,67.0,62.9,57.0,94,78,55,29.69,29.67,13,8,17,0.57
2014-5-10,77.0,68.7,54.8,53.1,46.8,41.0,87,48,31,29.95,29.88,6,3,8,0.00
2014-5-11,85.4,74.9,63.1,66.0,61.7,56.1,93,66,44,29.94,29.78,21,8,26,0.74
2014-5-12,85.5,78.3,69.6,73.8,71.3,67.2,93,80,64,29.87,29.79,14,9,20,0.00
2014-5-13,66.8,59.9,54.8,65.3,57.3,51.6,96,91,86,30.04,29.86,7,4,9,0.41
2014-5-14,56.5,54.3,51.0,47.4,45.8,43.3,84,73,66,30.17,30.03,14,9,19,0.01
2014-5-15,55.1,48.0,43.7,46.2,43.0,40.9,92,83,68,30.01,29.92,11,5,13,0.17
2014-5-16,44.2,43.0,41.8,41.7,40.3,39.1,93,90,88,30.04,29.98,15,10,17,0.44
2014-5-17,59.0,53.7,43.9,43.8,39.9,34.7,90,61,43,30.17,30.14,5,3,9,0.00
2014-5-18,67.2,61.5,49.5,46.5,43.7,40.8,78,53,40,30.27,30.19,8,5,10,0.00
2014-5-19,71.2,63.4,51.2,49.0,46.9,44.9,80,56,40,30.22,30.00,20,13,24,0.00
2014-5-20,85.5,77.9,62.9,67.7,65.1,58.3,85,66,53,29.89,29.76,8,6,13,0.00
2014-5-21,88.4,82.2,69.9,68.7,65.5,58.1,87,59,36,29.85,29.78,7,4,13,0.00
2014-5-22,74.6,69.3,62.0,55.7,52.6,45.6,73,56,37,30.08,29.99,6,3,10,0.00
2014-5-23,74.4,68.1,55.1,52.5,50.7,48.5,86,55,41,30.18,30.12,11,4,15,0.00
2014-5-24,76.3,69.2,52.4,50.6,45.8,41.3,84,46,29,30.23,30.10,6,3,9,0.00
2014-5-25,85.0,78.5,65.0,55.6,51.7,47.4,68,41,29,30.13,29.98,8,5,11,0.00
2014-5-26,90.4,81.7,67.9,68.0,64.8,59.3,88,58,42,30.02,29.84,7,4,10,0.47
2014-5-27,83.0,76.9,69.0,71.8,68.9,65.3,88,77,61,29.93,29.84,5,4,11,0.00
2014-5-28,82.2,74.4,63.8,70.6,67.3,62.6,97,80,61,29.94,29.89,8,5,11,0.00
2014-5-29,83.3,74.8,62.4,68.4,65.6,61.2,97,75,56,30.06,29.98,13,8,16,0.00
2014-5-30,86.4,79.0,66.3,59.6,56.2,49.7,78,48,30,30.14,30.04,12,9,15,0.00
2014-5-31,89.5,83.9,69.1,58.5,53.9,48.9,68,37,25,30.14,30.00,13,10,16,0.00
2014-6-1,89.2,83.7,73.3,71.0,63.7,58.5,71,52,45,30.02,29.86,11,7,14,0.02
2014-6-2,85.1,79.5,75.5,70.2,68.2,64.7,83,69,51,29.83,29.78,16,10,23,0.00
2014-6-3,83.9,78.4,72.0,63.6,56.3,51.6,75,48,33,29.94,29.87,5,4,11,0.00
2014-6-4,65.1,63.9,63.0,62.5,61.4,60.2,95,92,85,29.81,29.68,12,9,16,0.88
2014-6-5,76.4,69.1,57.5,57.4,53.6,46.1,90,60,36,29.97,29.87,9,6,12,0.01
2014-6-6,83.1,75.6,60.5,58.2,53.7,49.7,77,48,33,29.98,29.90,5,2,8,0.00
2014-6-7,83.0,78.0,66.1,62.9,56.2,52.0,83,49,36,29.97,29.74,12,7,18,0.02
2014-6-8,73.2,69.1,58.6,62.3,59.3,53.8,86,71,62,29.96,29.91,13,9,16,0.23
2014-6-9,80.6,72.7,57.1,63.3,57.9,50.6,79,61,41,29.98,29.84,9,4,13,0.00
2014-6-10,67.5,65.1,62.9,63.5,62.0,59.6,95,90,84,29.85,29.76,11,7,15,0.46
2014-6-11,69.4,66.1,64.2,65.3,63.4,61.9,97,91,85,29.69,29.67,5,2,9,0.00
2014-6-12,79.3,74.0,62.2,68.7,66.5,60.8,95,78,66,29.80,29.75,6,3,13,0.00
2014-6-13,74.3,67.4,58.4,50.7,46.1,41.0,75,48,31,29.99,29.94,7,5,12,0.00
2014-6-14,77.9,72.6,61.4,51.8,48.4,44.8,64,43,32,30.10,29.99,10,6,14,0.00
2014-6-15,82.2,74.1,61.6,68.2,59.1,53.2,74,60,53,29.95,29.77,19,12,28,0.00
2014-6-16,87.9,82.5,70.4,72.0,69.4,67.5,91,66,53,30.03,29.88,7,3,12,0.00
2014-6-17,90.3,84.3,76.0,75.9,73.2,70.1,83,70,59,29.89,29.78,12,7,19,0.00
2014-6-18,87.3,78.1,71.5,76.5,71.7,65.6,90,81,62,29.92,29.76,16,4,18,0.16
2014-6-19,84.5,76.3,65.6,76.5,70.5,63.2,95,83,67,30.03,29.93,10,5,13,1.48
2014-6-20,84.1,78.8,71.1,75.1,72.0,69.0,96,80,62,29.95,29.88,4,2,7,0.51
2014-6-21,84.5,73.8,65.2,73.3,68.5,64.3,97,84,65,29.96,29.80,14,5,14,0.96
2014-6-22,84.8,78.1,69.0,73.0,69.9,66.9,93,76,61,29.89,29.80,4,2,5,0.00
2014-6-23,83.3,77.3,70.1,75.9,72.2,68.6,95,85,71,29.83,29.76,5,2,8,0.02
2014-6-24,83.7,77.0,70.1,73.3,71.3,68.9,97,83,65,29.84,29.80,3,1,6,0.26
2014-6-25,84.4,79.1,69.0,72.1,68.9,64.4,92,71,59,29.94,29.91,11,3,12,0.00
2014-6-26,82.1,72.5,62.1,72.2,67.2,61.2,97,84,68,30.05,29.94,4,3,8,0.00
2014-6-27,85.5,81.3,70.2,73.3,71.3,68.1,93,72,61,29.99,29.92,10,6,13,0.00
2014-6-28,85.8,80.5,71.7,74.8,72.8,69.8,94,78,66,30.00,29.90,11,6,20,0.00
2014-6-29,84.8,80.5,71.3,75.5,72.6,68.3,91,77,70,29.95,29.87,7,4,11,0.11
2014-6-30,85.5,77.8,69.4,78.7,73.5,67.5,95,87,78,29.84,29.61,12,6,14,0.47
2014-7-1,81.8,77.2,69.2,69.6,67.7,64.7,94,73,58,29.75,29.70,7,4,10,0.05
2014-7-2,70.3,68.3,65.8,62.7,59.6,57.2,88,74,66,29.94,29.85,4,3,9,0.00
2014-7-3,74.8,68.4,59.3,59.3,56.9,54.5,91,68,52,30.13,30.09,4,2,8,0.12
2014-7-4,79.2,73.6,61.1,60.3,58.1,54.9,86,59,45,30.29,30.23,4,1,7,0.00
2014-7-5,76.9,74.3,63.6,63.2,60.1,57.3,88,62,53,30.25,30.07,7,5,14,0.00
2014-7-6,85.4,79.1,66.3,75.9,71.6,63.3,90,78,63,29.93,29.73,9,5,14,0.00
2014-7-7,87.3,82.0,73.1,75.3,72.2,68.0,91,73,56,29.72,29.66,3,2,8,0.14
2014-7-8,80.9,77.1,71.0,68.8,66.2,62.9,87,70,56,29.74,29.60,8,4,12,0.22
2014-7-9,78.7,73.9,64.5,64.7,62.2,59.4,92,68,54,29.92,29.88,4,2,9,0.00
2014-7-10,79.2,74.3,62.3,62.7,59.1,55.0,95,61,47,30.16,30.09,4,2,6,0.00
2014-7-11,80.6,75.2,62.2,63.2,60.7,56.9,88,62,50,30.19,30.07,5,3,10,0.00
2014-7-12,81.6,77.4,69.4,77.5,74.3,67.9,96,90,86,30.03,29.84,7,4,8,2.76
2014-7-13,83.8,76.3,70.2,71.2,69.1,67.8,95,79,61,29.93,29.85,3,2,6,0.23
2014-7-14,79.6,75.6,66.2,72.5,67.4,59.0,95,77,52,29.84,29.74,7,3,9,0.00
2014-7-15,69.7,63.6,56.0,57.4,54.8,52.8,89,73,61,29.94,29.91,8,4,11,0.00
2014-7-16,72.6,67.5,56.9,59.3,55.8,53.3,96,68,54,30.02,29.98,8,3,13,0.00
2014-7-17,77.4,70.4,58.0,61.2,59.3,56.3,94,69,53,30.09,30.05,4,2,5,0.00
2014-7-18,77.0,73.0,61.6,64.5,61.7,58.5,94,69,55,30.15,30.06,6,3,8,0.00
2014-7-19,80.1,73.1,57.3,64.6,61.8,56.2,96,69,53,30.07,29.97,2,1,5,0.00
2014-7-20,81.4,76.8,64.8,66.6,64.3,62.0,95,66,54,30.06,29.98,3,1,6,0.00
2014-7-21,82.5,76.9,64.3,70.0,67.4,63.1,96,74,63,30.09,30.02,5,3,9,0.00
2014-7-22,86.5,81.7,68.5,77.5,73.9,66.1,92,78,70,30.03,29.90,7,5,14,0.00
2014-7-23,74.4,71.9,65.0,62.1,59.2,54.8,84,65,52,30.10,30.02,12,9,18,0.49
2014-7-24,75.3,69.9,59.1,60.6,57.8,54.5,91,67,49,30.14,30.05,7,4,11,0.00
2014-7-25,73.4,67.7,57.5,64.2,60.7,54.9,92,79,69,30.09,29.88,10,4,16,0.00
2014-7-26,80.4,74.8,66.7,74.8,70.3,64.3,92,86,80,29.83,29.73,5,2,9,0.05
2014-7-27,83.8,79.7,71.2,75.2,69.2,60.5,98,72,48,29.74,29.70,8,4,13,0.03
2014-7-28,70.9,67.7,61.2,58.8,55.1,50.8,82,65,50,30.06,29.98,9,6,13,0.00
2014-7-29,78.3,71.8,58.0,63.2,60.3,55.7,92,68,53,30.06,29.98,6,3,14,0.05
2014-7-30,79.0,72.8,60.9,65.8,63.4,59.5,96,73,58,30.03,29.98,4,2,8,0.01
2014-7-31,80.6,74.2,59.0,68.1,64.5,57.6,95,73,62,30.04,29.99,4,2,7,0.00
2014-8-1,82.7,73.6,62.5,67.7,64.8,60.7,94,75,53,30.07,30.01,7,1,9,0.09
2014-8-2,83.3,75.5,60.1,66.5,64.2,59.2,97,69,51,30.14,30.05,3,1,4,0.01
2014-8-3,84.4,78.0,62.9,71.2,67.6,61.4,95,71,55,30.14,30.04,3,2,5,0.00
2014-8-4,83.2,76.8,64.6,72.2,68.9,62.8,94,77,58,30.09,29.97,4,1,5,0.06
2014-8-5,80.5,75.5,68.2,70.4,68.5,67.0,96,79,70,30.02,29.97,3,1,4,0.08
2014-8-6,80.2,73.1,62.9,68.4,66.0,62.0,97,79,65,30.04,29.99,4,1,6,0.01
2014-8-7,77.2,72.4,61.5,66.2,64.0,60.1,95,76,63,30.06,29.99,7,4,11,0.00
2014-8-8,81.0,75.4,65.8,66.4,63.7,59.5,81,68,54,30.02,29.96,8,5,12,0.00
2014-8-9,81.8,76.2,64.9,65.5,62.8,58.9,81,64,53,30.04,29.97,6,4,10,0.00
2014-8-10,78.8,74.5,65.9,71.4,67.3,60.9,84,78,74,30.00,29.91,6,3,8,0.00
2014-8-11,82.6,73.7,67.1,71.8,69.1,65.9,96,87,63,29.85,29.78,4,2,7,0.18
2014-8-12,69.4,65.0,62.5,61.6,59.3,57.5,92,82,72,29.90,29.77,7,4,15,0.01
2014-8-13,81.8,73.0,56.2,65.2,61.8,54.5,94,69,55,30.04,29.96,5,3,10,0.01
2014-8-14,74.8,70.0,59.0,62.8,59.9,57.6,95,71,60,30.06,30.00,5,3,8,0.01
2014-8-15,75.2,67.7,49.7,59.4,54.1,48.6,96,64,49,30.09,29.99,5,2,8,0.00
2014-8-16,67.9,65.7,63.7,64.9,63.3,61.6,93,92,90,29.91,29.90,3,2,6,0.00
2014-8-17,78.3,74.6,66.4,70.7,69.0,65.2,96,83,75,29.92,29.89,5,3,6,0.00
2014-8-18,81.4,72.7,65.3,71.9,68.3,64.4,97,87,71,29.88,29.78,3,1,5,0.00
2014-8-19,82.1,74.5,67.7,73.7,70.2,65.7,96,87,69,29.78,29.68,10,4,13,0.22
2014-8-20,83.4,77.6,63.7,73.8,70.3,62.8,97,79,67,29.91,29.82,5,2,7,0.01
2014-8-21,85.6,79.0,69.9,77.8,74.3,68.7,97,86,76,29.94,29.85,6,2,7,0.13
2014-8-22,83.9,77.4,73.3,76.6,74.0,72.4,97,90,76,29.94,29.86,4,2,7,3.22
2014-8-23,84.6,77.0,71.0,77.1,73.4,69.0,98,89,77,29.99,29.86,7,2,12,0.19
2014-8-24,86.1,78.9,70.3,79.4,75.1,69.7,98,89,80,29.97,29.91,6,4,8,0.01
2014-8-25,91.4,80.4,70.7,82.4,75.4,67.6,97,85,69,30.01,29.92,11,4,13,1.03
2014-8-26,83.6,79.2,70.1,77.6,73.6,68.3,94,83,72,30.07,30.02,9,3,17,0.01
2014-8-27,82.2,77.2,69.9,70.2,67.5,65.2,89,72,63,30.09,30.05,4,2,7,0.00
2014-8-28,81.1,74.9,62.3,68.5,66.1,59.3,90,75,61,30.08,29.96,6,2,7,0.05
2014-8-29,84.5,78.3,70.6,76.9,73.2,68.2,92,85,74,29.95,29.82,7,4,9,0.01
2014-8-30,84.1,77.9,71.2,74.6,72.0,67.9,94,82,71,29.87,29.79,9,6,16,0.00
2014-8-31,85.0,79.3,71.5,74.7,72.6,70.6,97,81,68,29.92,29.85,6,3,8,0.00
2014-9-1,83.4,79.3,72.8,73.7,71.2,67.5,95,77,61,29.76,29.70,7,5,11,0.00
2014-9-2,82.2,75.4,67.0,70.7,67.4,62.7,97,78,53,29.88,29.83,7,2,7,0.58
2014-9-3,84.1,77.8,62.2,69.2,67.4,61.3,97,72,58,30.01,29.93,5,2,7,0.00
2014-9-4,85.4,74.3,70.8,73.7,70.0,67.4,95,87,68,30.04,29.87,11,5,13,0.24
2014-9-5,90.1,80.7,65.9,77.5,73.2,61.8,93,79,66,30.01,29.81,9,4,12,0.43
2014-9-6,74.0,68.0,59.8,60.5,57.9,54.8,93,72,52,30.14,30.09,6,4,10,0.00
2014-9-7,77.1,71.0,57.4,61.6,57.2,53.7,92,64,47,30.20,30.12,5,2,6,0.01
2014-9-8,77.4,71.2,55.7,61.7,58.0,54.6,96,65,49,30.11,29.98,6,3,9,0.00
2014-9-9,78.9,69.1,62.1,68.4,64.3,60.7,95,85,69,30.00,29.88,11,4,13,0.31
2014-9-10,78.5,74.2,69.0,74.9,71.6,67.8,96,92,87,29.61,29.55,13,8,17,1.35
2014-9-11,54.3,53.3,51.9,49.0,48.2,47.5,87,83,79,30.18,30.04,6,4,9,0.00
2014-9-12,56.6,53.4,50.5,53.1,50.7,47.4,94,90,82,30.31,30.22,6,3,8,0.00
2014-9-13,60.3,51.9,40.6,46.0,43.4,39.3,95,74,55,30.38,30.31,7,3,9,0.00
2014-9-14,68.4,60.1,44.7,51.4,46.2,43.4,97,63,43,30.33,30.18,5,3,11,0.01
2014-9-15,57.1,55.7,52.6,55.3,53.6,50.5,95,93,91,30.18,30.04,5,2,5,0.28
2014-9-16,68.1,59.7,44.5,53.9,48.3,43.4,97,69,47,30.22,30.10,4,2,5,0.01
2014-9-17,71.7,63.4,43.7,54.6,51.3,42.6,97,67,49,30.06,29.94,4,2,7,0.01
2014-9-18,73.6,65.9,46.8,54.6,51.7,45.7,96,63,44,30.12,30.04,7,4,11,0.00
2014-9-19,76.4,67.6,50.3,55.6,51.2,47.0,95,60,37,30.15,30.00,10,6,15,0.01
2014-9-20,82.1,74.2,59.5,72.1,66.6,56.3,91,78,65,29.95,29.75,10,6,18,0.24
2014-9-21,67.9,63.8,57.4,55.8,53.9,52.6,88,70,60,29.97,29.82,7,5,15,0.00
2014-9-22,68.3,59.4,45.1,49.5,47.7,43.5,94,67,48,30.28,30.22,4,2,5,0.01
2014-9-23,75.8,65.0,43.3,52.6,49.2,41.7,95,60,39,30.34,30.24,4,2,6,0.00
2014-9-24,78.4,68.9,49.9,54.7,50.8,46.9,96,56,34,30.34,30.22,5,3,10,0.00
2014-9-25,79.1,68.9,52.4,59.7,55.2,50.3,95,65,37,30.28,30.17,5,2,9,0.00
2014-9-26,83.0,73.8,51.8,60.2,55.3,50.4,96,57,34,30.24,30.14,4,2,6,0.00
2014-9-27,82.1,74.8,55.2,61.5,57.6,53.5,94,59,41,30.22,30.10,5,2,7,0.00
2014-9-28,82.0,73.1,51.6,62.6,56.8,50.5,97,61,36,30.14,30.02,4,2,7,0.00
2014-9-29,84.4,74.1,51.0,61.2,58.6,49.9,97,62,43,30.03,29.89,4,2,6,0.00
2014-9-30,64.3,59.2,53.7,51.8,50.8,49.4,86,74,63,30.01,29.94,8,6,10,0.00
2014-10-1,78.9,66.3,47.6,59.4,54.4,46.2,95,68,51,30.00,29.84,8,5,11,0.00
2014-10-2,74.8,69.0,63.7,67.7,65.5,62.4,96,89,78,29.86,29.64,6,2,9,0.63
2014-10-3,60.0,56.0,50.5,55.3,50.6,42.3,95,83,69,29.78,29.53,7,4,12,0.71
2014-10-4,49.5,42.7,36.0,38.0,36.0,31.1,91,77,60,29.80,29.75,9,6,14,0.02
2014-10-5,55.9,50.6,38.0,42.9,39.1,34.5,88,65,55,29.78,29.66,7,4,11,0.00
2014-10-6,63.2,58.4,50.0,50.8,44.9,39.9,86,63,43,29.61,29.59,8,5,16,0.00
2014-10-7,69.9,62.1,50.1,56.4,50.6,46.4,91,68,46,29.70,29.64,7,4,10,0.01
2014-10-8,66.9,59.3,42.9,46.4,38.6,32.8,91,51,31,30.06,30.00,5,3,11,0.00
2014-10-9,63.8,56.7,50.8,50.3,46.7,41.2,94,72,45,30.14,30.04,3,1,5,0.08
2014-10-10,60.2,55.4,41.2,43.3,41.7,38.8,93,62,49,30.17,30.10,6,4,10,0.00
2014-10-11,62.1,53.2,35.7,44.9,37.7,34.1,96,60,37,30.25,30.16,6,2,8,0.00
2014-10-12,63.7,56.4,40.3,51.2,45.5,37.6,90,68,58,30.09,29.89,9,5,11,0.00
2014-10-13,69.7,65.3,58.0,67.0,63.5,57.2,98,94,88,29.85,29.54,12,5,14,0.35
2014-10-14,63.6,61.6,59.5,61.0,59.3,56.1,96,92,86,29.49,29.43,7,4,10,0.17
2014-10-15,54.4,52.8,51.6,52.7,51.5,50.5,96,96,94,29.76,29.71,4,3,7,0.23
2014-10-16,58.0,55.3,52.6,54.0,52.7,51.2,96,91,86,29.86,29.76,3,1,6,0.00
2014-10-17,60.7,56.7,49.1,52.6,50.0,46.9,92,79,72,29.72,29.61,6,4,12,0.01
2014-10-18,52.3,49.7,47.2,46.1,43.5,42.3,88,79,73,30.16,29.99,8,4,9,0.02
2014-10-19,56.3,50.1,33.2,45.9,43.0,32.2,97,78,67,30.25,30.05,6,4,11,0.01
2014-10-20,67.8,60.3,48.7,52.5,49.8,45.6,90,70,51,29.87,29.82,6,4,8,0.00
2014-10-21,56.1,53.0,45.5,45.9,42.9,38.5,93,70,55,30.17,30.08,8,6,12,0.00
2014-10-22,59.7,52.0,33.5,42.4,39.8,32.0,96,65,45,30.37,30.26,4,2,7,0.00
2014-10-23,61.0,52.5,35.4,47.4,43.5,34.1,95,73,55,30.25,30.09,6,4,10,0.09
2014-10-24,70.0,60.5,45.5,53.8,50.1,43.6,93,71,45,30.07,29.96,4,2,7,0.00
2014-10-25,75.8,66.9,56.2,58.3,49.8,33.4,95,61,23,29.96,29.91,5,3,9,0.00
2014-10-26,68.9,59.7,37.4,39.9,32.2,27.1,86,40,22,30.05,29.88,3,1,7,0.00
2014-10-27,78.0,71.0,57.9,63.1,60.3,52.8,87,70,57,29.72,29.58,12,8,18,0.00
2014-10-28,60.6,56.5,51.4,48.2,43.9,39.1,86,64,49,29.92,29.78,8,5,14,0.28
2014-10-29,47.7,46.2,41.8,38.8,36.4,35.2,84,69,62,30.12,30.05,5,3,8,0.00
2014-10-30,51.3,44.9,30.8,40.3,37.2,28.8,93,76,62,30.17,30.07,6,2,7,0.00
2014-10-31,42.8,40.1,37.0,32.5,29.1,25.7,82,65,54,30.24,30.10,18,13,29,0.01
2014-11-1,45.1,41.3,35.1,31.4,29.6,26.7,72,63,55,30.45,30.40,11,8,16,0.00
2014-11-2,52.5,46.6,29.4,32.7,28.9,25.9,93,53,36,30.47,30.27,9,6,12,0.00
2014-11-3,66.3,59.1,46.0,47.7,41.0,33.3,61,51,47,30.16,30.00,13,10,18,0.00
2014-11-4,54.0,50.3,46.9,52.0,45.5,39.7,93,84,73,30.05,29.93,11,6,15,0.05
2014-11-5,64.0,55.3,36.1,46.4,41.3,34.3,94,62,41,30.18,30.02,9,5,11,0.00
2014-11-6,47.5,43.9,41.7,44.0,37.5,32.6,88,78,70,30.15,29.83,13,8,20,0.15
2014-11-7,44.6,40.8,34.1,33.3,30.8,28.6,81,68,62,30.23,30.00,7,3,10,0.00
2014-11-8,50.0,46.7,43.8,41.4,36.1,31.6,89,67,52,29.93,29.80,8,5,11,0.00
2014-11-9,52.8,45.8,34.3,38.2,34.6,29.9,84,66,53,29.97,29.79,11,8,16,0.00
2014-11-10,63.4,56.2,43.4,47.3,45.0,39.8,87,67,55,29.77,29.53,19,14,25,0.00
2014-11-11,47.0,39.1,36.1,42.4,36.4,33.0,93,90,84,29.97,29.66,7,6,17,0.35
2014-11-12,29.8,28.9,28.0,23.4,21.9,19.9,78,75,71,30.34,30.31,5,3,9,0.00
2014-11-13,29.8,28.0,24.7,23.3,21.0,17.6,84,75,67,30.37,30.32,6,4,10,0.00
2014-11-14,28.1,26.6,22.9,21.7,18.7,16.5,88,72,63,30.43,30.38,4,2,7,0.01
2014-11-15,30.9,27.8,19.0,20.8,19.2,15.6,87,70,61,30.44,30.29,4,2,7,0.00
2014-11-16,32.6,31.1,29.2,28.2,27.6,26.4,90,87,82,30.15,30.01,7,4,8,0.00
2014-11-17,23.9,20.0,14.1,15.6,11.3,7.6,86,69,55,30.01,29.91,9,6,19,0.00
2014-11-18,21.2,17.9,11.6,9.1,8.0,6.9,81,65,57,30.20,30.16,9,7,17,0.00
2014-11-19,34.4,30.0,24.4,24.1,20.8,16.8,80,68,63,29.98,29.83,10,7,16,0.00
2014-11-20,31.9,27.3,17.4,18.6,14.5,11.3,82,60,45,30.20,30.13,8,6,17,0.00
2014-11-21,35.0,27.6,6.6,12.3,9.8,2.5,84,49,34,30.52,30.38,12,8,16,0.00
2014-11-22,39.5,38.6,37.8,36.5,35.4,34.8,89,88,87,30.08,30.06,8,7,11,0.25
2014-11-23,53.0,50.5,48.1,50.0,47.6,43.8,95,90,85,29.76,29.40,14,11,19,0.28
2014-11-24,41.0,33.6,30.3,39.9,31.9,27.9,96,93,89,29.68,29.16,13,10,27,0.55
2014-11-25,25.4,24.6,22.7,21.0,20.3,19.1,86,84,81,30.20,30.09,6,4,11,0.00
2014-11-26,28.9,27.1,23.1,24.4,23.2,20.9,91,85,81,30.20,30.12,11,7,15,0.00
2014-11-27,29.2,26.9,23.3,24.5,22.3,20.8,90,83,76,30.42,30.35,8,5,9,0.00
2014-11-28,36.3,28.2,20.7,31.6,23.2,17.4,87,81,75,30.34,30.02,18,13,21,0.00
2014-11-29,52.7,46.5,36.3,47.4,42.0,33.4,89,84,81,29.77,29.65,11,7,19,0.00
2014-11-30,57.6,48.5,35.4,54.8,46.2,33.5,95,92,88,30.01,29.73,9,6,14,0.01
2014-12-1,24.9,23.6,21.8,12.5,9.2,6.2,67,54,46,30.66,30.58,11,8,13,0.00
2014-12-2,31.7,28.9,19.3,28.1,24.9,16.1,87,85,83,30.40,30.14,12,6,13,0.00
2014-12-3,38.8,33.9,25.8,27.5,25.1,23.0,89,71,55,30.32,30.22,6,4,12,0.00
2014-12-4,34.4,31.3,25.5,26.9,24.7,21.2,85,76,68,30.44,30.32,8,5,9,0.00
2014-12-5,40.0,37.2,33.1,36.7,35.1,31.8,95,92,88,30.25,30.15,6,4,7,0.00
2014-12-6,41.7,38.6,36.5,33.9,33.0,30.4,90,80,70,30.58,30.41,13,10,16,0.00
2014-12-7,34.7,32.4,25.5,29.7,27.6,22.4,88,82,80,30.67,30.47,14,9,16,0.00
2014-12-8,37.2,35.5,33.5,36.2,34.1,31.2,96,95,91,30.17,30.03,7,5,9,0.08
2014-12-9,38.2,36.3,34.2,35.8,34.4,32.9,96,93,88,30.36,30.26,6,4,9,0.01
2014-12-10,35.4,33.9,31.9,30.6,29.4,28.4,87,84,78,30.42,30.30,9,4,11,0.00
2014-12-11,30.9,28.3,26.6,26.3,24.6,23.0,88,86,81,30.33,30.27,5,3,9,0.00
2014-12-12,34.8,31.8,26.5,33.5,30.5,25.0,96,95,94,30.38,30.33,4,2,6,0.00
2014-12-13,49.4,45.3,36.9,45.8,42.5,35.3,94,90,87,30.27,30.15,5,3,9,0.00
2014-12-14,50.1,48.1,44.6,47.9,46.4,43.5,96,94,91,30.12,30.03,9,6,11,0.00
2014-12-15,45.9,45.2,43.7,45.4,44.3,42.6,98,97,95,29.97,29.73,17,12,20,0.10
2014-12-16,45.2,40.5,35.5,44.2,39.2,33.7,97,95,92,30.03,29.72,8,6,15,0.04
2014-12-17,27.6,26.3,25.0,23.0,22.1,21.3,88,84,80,30.31,30.25,5,4,8,0.00
2014-12-18,27.9,25.4,20.4,22.5,21.2,17.4,90,84,79,30.36,30.26,3,2,5,0.00
2014-12-19,33.5,28.9,19.5,28.4,24.9,17.3,92,85,77,30.37,30.29,5,2,6,0.00
2014-12-20,31.6,29.6,28.4,28.8,27.5,26.4,93,92,90,30.33,30.31,5,2,6,0.00
2014-12-21,38.4,35.2,32.5,33.6,31.4,29.8,90,86,82,30.26,30.11,12,9,15,0.00
2014-12-22,40.3,35.9,32.1,39.3,34.2,29.8,96,93,90,29.94,29.67,15,12,19,0.25
2014-12-23,47.7,45.7,40.4,43.1,41.7,38.0,92,86,80,29.74,29.67,11,6,15,0.05
2014-12-24,38.9,38.2,36.8,37.6,36.8,35.2,95,94,93,29.66,29.52,5,3,9,0.14
2014-12-25,45.1,39.7,34.8,39.3,35.2,31.7,89,84,79,30.02,29.95,11,7,13,0.00
2014-12-26,53.3,46.7,35.5,46.0,41.9,33.1,92,83,76,30.07,30.01,12,8,15,0.00
2014-12-27,49.2,41.9,35.5,47.9,39.4,31.8,96,91,85,30.11,29.99,11,7,16,0.01
2014-12-28,32.4,28.3,24.9,23.7,21.9,20.3,88,77,61,30.25,30.19,4,2,6,0.00
2014-12-29,33.9,30.6,21.7,30.4,26.5,19.3,91,85,76,30.40,30.35,8,5,9,0.01
2014-12-30,21.4,18.2,14.4,11.3,9.1,5.3,86,68,54,30.72,30.65,6,4,11,0.00
2014-12-31,21.0,14.2,5.6,7.9,4.7,0.8,80,66,52,30.64,30.35,9,6,14,0.00
2015-1-1,30.3,24.9,16.2,18.8,14.8,10.5,78,65,58,30.18,30.06,10,7,17,0.00
2015-1-2,35.5,29.6,17.6,26.4,22.7,14.0,88,75,66,30.37,30.27,5,2,7,0.00